Location: Gipe Farm
(40.9466°N, 95.5370°W)
Time: 06:09:46
(UTC-05:00)

Daily predictions for brighter satellites

Satellite Brightness Start Highest point End
(mag) Time Altitude Azimuth Time Altitude Azimuth Time Altitude Azimuth
Cosmos 1709 Rocket 4.2 21:09:17 10° SSW 21:15:23 77° W 21:21:36 10° N
NOSS 2-2 (E) 4.1 21:12:08 10° S 21:15:53 34° ESE 21:20:06 10° NE
Cosmos 2074 Rocket 4.2 21:16:09 10° SSE 21:22:14 53° E 21:28:19 10° NNE
SPOT 5 4.0 21:20:05 10° SE 21:24:44 34° ENE 21:29:30 10° N
COSMOS 2406 3.7 21:19:47 10° NNW 21:25:20 46° ENE 21:30:49 10° SE
Cosmos 909 Rocket 4.3 21:21:29 10° SSW 21:27:45 59° ESE 21:35:12 10° NE
SJ-11-01 4.3 21:23:27 10° SSE 21:28:11 74° ENE 21:32:56 10° N
H-2A R/B 2.5 21:24:48 10° SE 21:28:58 45° ENE 21:33:02 10° N
ERS-1 Rocket 3.0 21:23:59 10° SSE 21:29:00 75° ENE 21:34:03 10° N
Cosmos 1356 Rocket 3.6 21:25:33 10° S 21:29:39 56° E 21:33:51 10° NNE
ALOS 3.7 21:30:36 10° SSW 21:34:56 37° W 21:39:17 10° NNW
ATLAS 5 CENTAUR R/B 2.6 21:35:13 10° NNW 21:41:11 64° NE 21:46:55 13° SE
ARGOS 4.4 21:38:34 11° ESE 21:42:37 25° ENE 21:46:55 10° N
PSLV R/B 3.3 21:40:17 10° W 21:43:44 80° S 21:46:43 14° ESE
OPS 6432 4.4 21:43:41 10° SSW 21:47:07 50° ESE 21:50:10 10° NE
Cosmos 2278 Rocket 3.5 21:43:31 11° SE 21:47:10 20° E 21:51:13 10° NE
Abrixas rocket 2.9 21:44:05 10° WNW 21:47:24 47° SW 21:49:51 16° SE
Sich 1 Rocket 4.1 21:43:20 10° SSE 21:47:38 41° E 21:51:57 10° NNE
CZ-4 DEB 4.4 21:46:23 10° SSW 21:49:17 33° W 21:52:13 10° NNW
Cosmos 1844 4.4 21:44:17 10° SSE 21:49:21 33° ESE 21:54:29 10° NE
USA 234 3.9 21:46:04 10° ENE 21:51:36 29° SE 21:57:08 10° S
CZ-4B R/B 4.4 21:47:33 10° NE 21:51:46 27° E 21:54:54 15° SE
Cosmos 1825 3.4 21:54:31 18° SE 21:56:16 24° E 21:59:24 10° NE
Cosmos 1674 Rocket 3.6 21:53:41 10° N 21:58:10 70° E 22:02:00 14° SSE
Cosmos 1340 Rocket 4.2 21:54:58 10° SSW 21:58:44 41° WNW 22:02:33 10° N
Cosmos 2056 Rocket 3.4 21:54:08 10° SSW 21:59:19 83° ESE 22:04:28 10° NNE
Cosmos 1844 Rocket 2.8 21:54:57 10° S 22:00:26 56° ESE 22:05:58 10° NNE
Cosmos 1371 Rocket 4.4 21:56:01 10° SSW 22:01:19 71° WNW 22:06:37 10° NNE
Cosmos 1939 Rocket 3.2 21:57:50 10° S 22:01:39 62° W 22:05:32 10° NNW
Meteor 1-27 Rocket 3.9 21:57:09 10° N 22:02:37 52° ENE 22:06:41 17° SSE
Cosmos 1184 Rocket 4.3 22:04:01 19° E 22:04:22 20° E 22:06:52 10° NE
Cosmos 1782 2.7 22:01:18 10° N 22:05:21 84° E 22:08:35 16° S
Cosmos 2082 Rocket 4.3 22:02:36 10° NNE 22:05:44 15° NE 22:08:51 10° E
Cosmos 1782 Rocket 4.4 22:07:23 21° SE 22:09:32 32° E 22:13:31 10° NNE
Atlas Centaur 2 2.8 22:09:45 10° SW 22:12:00 16° S 22:12:00 16° S
COSMOS 2487 4.1 22:09:45 10° NNE 22:12:36 21° ENE 22:13:44 19° E
SL-27 R/B 2.5 22:10:38 10° NNW 22:14:19 90° WNW 22:16:21 25° SSE
Coronas F rocket 3.7 22:14:05 10° SW 22:16:17 23° WNW 22:18:30 10° NNW
YAOGAN 6 2.5 22:14:36 26° SSE 22:16:25 66° ENE 22:19:54 10° N
Cosmos 1408 3.0 22:15:26 27° SSE 22:16:58 42° E 22:20:28 10° NNE
CZ-4 R/B 4.4 22:15:18 10° NNE 22:19:38 36° E 22:21:33 25° SE
MetOp-A 4.1 22:16:22 17° SSE 22:20:35 90° ENE 22:25:58 10° NNW
SL-8 R/B 3.8 22:16:08 10° WSW 22:20:57 81° NNW 22:25:47 10° ENE
COS B Rocket 3.3 22:17:24 10° N 22:21:42 89° ESE 22:24:24 20° S
CENTAUR R/B 3.5 22:16:15 10° NW 22:23:59 59° WSW 22:30:41 16° SSE
Cosmos 2154 Rocket 3.9 22:18:25 10° S 22:24:38 81° E 22:30:52 10° N
Cosmos 1975 Rocket 3.5 22:21:42 10° N 22:25:49 42° ENE 22:27:24 30° SE
SL-08 RB Rocket 4.1 22:24:57 27° SE 22:27:05 48° ENE 22:31:31 10° N
Cosmos 1606 2.7 22:23:27 10° N 22:27:25 90° ESE 22:29:28 27° S
NOAA 11 4.2 22:28:50 25° SSE 22:32:02 67° ENE 22:37:30 10° N
Okean 3 3.5 22:28:16 10° N 22:32:33 61° E 22:34:14 34° SSE
Cosmos 1908 Rocket 3.7 22:31:02 14° SSW 22:34:51 76° W 22:39:18 10° N
USA 245 2.6 22:35:53 52° SSE 22:36:32 89° ENE 22:40:04 10° NNW
Cosmos 1242 Rocket 3.3 22:33:37 10° N 22:37:01 36° ENE 22:37:28 34° E
H-2A R/B 2.8 22:36:42 27° ESE 22:39:00 41° ENE 22:44:00 10° N
Envisat 4.3 22:34:33 10° SSW 22:39:11 36° W 22:43:51 10° NNW
STPSAT 2 (USA 217) 4.5 22:35:06 11° SSW 22:39:25 83° ESE 22:43:57 10° NNE
CZ-4 SHROUD 4.4 22:40:53 25° SSW 22:42:07 37° W 22:45:03 10° NNW
Cosmos 1378 Rocket 3.6 22:38:49 10° N 22:43:08 76° W 22:45:10 30° S
Cosmos 1295 Rocket 4.5 22:42:45 23° S 22:46:46 68° E 22:53:02 10° NNE
Cosmos 1420 Rocket 4.2 22:46:17 33° SSE 22:48:13 50° ESE 22:53:17 10° NNE
Cosmos 2151 Rocket 4.5 22:49:00 31° E 22:49:15 31° E 22:53:16 10° NNE
ERBS 3.5 22:46:28 10° WNW 22:49:35 31° SW 22:50:03 30° SW
CZ-3C R/B 4.2 22:45:00 10° SW 22:53:48 16° SSW 22:55:50 14° S
SPOT 1/Viking Rocket 3.8 22:51:06 27° S 22:53:58 67° WSW 22:59:10 10° NNW
Cosmos 489 Rocket 4.4 22:50:08 10° NNW 22:56:21 74° ENE 22:59:03 36° SSE
Cosmos 2366 rocket 4.3 22:56:09 34° SE 22:58:25 49° E 23:04:29 10° NNE
Cosmos 407 Rocket 4.3 22:54:16 10° NNW 22:59:16 46° WSW 23:02:05 24° SSW
BREEZE-M DEB (TANK) 4.2 22:58:27 10° NW 23:00:02 17° N 23:02:17 10° NE
Cosmos 1238 Rocket 3.3 22:57:34 10° NNW 23:00:32 43° W 23:01:14 37° SW
Landsat 7 3.7 23:00:35 45° SSE 23:02:01 78° ENE 23:06:47 10° N
Meteor 1-14 Rocket 4.3 23:00:06 37° SSE 23:02:13 61° E 23:07:45 10° NNE
Cosmos 1452 Rocket 3.9 22:57:27 10° SSW 23:02:39 63° WNW 23:07:54 10° NNE
Cosmos 2084 3.0 23:08:44 58° SW 23:09:26 89° NW 23:13:17 10° NE
ASTEX 1 4.2 23:07:51 10° NNE 23:12:22 34° E 23:12:25 34° E
Intercosmos 25 3.5 23:11:43 43° SW 23:12:40 60° W 23:15:54 10° N
Spot 4 4.1 23:13:28 47° ESE 23:14:21 55° ENE 23:19:07 10° N
Cosmos 614 Rocket 4.1 23:10:21 10° NNW 23:15:24 61° ENE 23:16:24 50° ESE
Cosmos 1140 Rocket 3.4 23:11:11 10° NNW 23:16:20 86° WSW 23:17:37 52° SSE
Terra 1.7 23:16:52 58° SE 23:17:46 78° ENE 23:22:33 10° N
Cosmos 2218 Rocket 4.0 23:17:25 35° S 23:20:18 85° E 23:26:46 10° N
DELTA 2 DEB (DPAF) 4.3 23:20:33 52° SSW 23:21:25 66° WSW 23:25:53 10° NNW
Okean 2 Rocket 3.9 23:20:05 27° SW 23:22:06 47° W 23:26:23 10° N
ARGOS 4.0 23:20:05 26° SSW 23:22:35 43° W 23:27:41 10° NNW
DMSP B5D2-2 3.9 23:17:30 10° NNE 23:22:44 77° ESE 23:24:02 52° S
ATLAS 5 CENTAUR R/B 4.0 23:20:47 10° WNW 23:25:35 24° WSW 23:28:29 18° SSW
BREEZE-M DEB (TANK) 2.7 23:17:12 10° WNW 23:26:05 66° SW 23:26:27 62° S
SL-08 R/B 4.5 23:23:48 36° S 23:26:39 89° W 23:33:10 10° N
CZ-4C R/B 3.8 23:30:16 47° WSW 23:30:24 48° W 23:34:15 10° NNW
Cosmos 2278 Rocket 2.8 23:25:14 10° SW 23:30:45 56° WNW 23:36:22 10° NNE
USA 234 3.4 23:28:26 10° NE 23:34:58 76° NW 23:41:28 10° WSW
Cosmos 1850 Rocket 4.0 23:31:28 10° NNW 23:36:47 76° WSW 23:37:42 60° S
Cosmos 1833 Rocket 3.0 23:32:28 10° NNW 23:37:59 54° ENE 23:39:00 47° E
Cosmos 1727 Rocket 3.9 23:32:23 10° N 23:38:36 87° E 23:40:11 53° S
Cosmos 1812 3.5 23:37:02 10° N 23:40:03 45° NE 23:40:03 45° NE
Timation 2 Rocket 4.0 23:43:13 10° NNW 23:49:07 61° WSW 23:50:18 51° SSW
Cosmos 2082 Rocket 2.0 23:44:58 10° NNW 23:50:43 86° ENE 23:51:28 69° SE
IGS 5A 4.3 23:54:29 42° W 23:54:29 42° W 23:58:20 10° NNW
Cosmos 1741 Rocket 4.3 23:49:34 10° NNW 23:54:39 53° WSW 23:55:12 51° SW
